Weather in Samburg

Russia / Yamalo-Nenets Autonomous Okrug     67°00′12″N   78°13′25″E
temp.,
°C
wind,
m/s
gust,
m/s
humid.,
%
clouds,
%
prec.,
mm/h
press.,
hPa
HPBL,
m
27 february, sat
sat2723:00−29wsw129988 0.1 102219
02:00−29w009991 0.1 102219
05:00−30sse0010089 0.1 102319
08:00−32e1110085 0.0 102319
11:00−29e119790 0.0 102428
14:00−30e129571 0.0 102420
17:00−33ese229661 0.0 102519
20:00−34se239657 0.0 102619
28 february, sun
sun2823:00−34sse239754 0.0 102619
02:00−34sse349745 0.0 102625
05:00−34sse349754 0.0 102737
08:00−34sse449733 0.0 102757
11:00−31sse479629 0.0 1027192
14:00−29sse479572 0.0 1027225
17:00−31sse479673 0.0 1027100
20:00−30sse589690 0.0 1026177
1 march, mon
mon123:00−29s599594 0.0 1026228
02:00−29s5895100 0.0 1025218
05:00−28s5895100 0.0 1025223
08:00−28s6995100 0.0 1024241
11:00−27s61094100 0.0 1023267
14:00−25s61093100 0.0 1021290
17:00−26s61194100 0.0 1020250
20:00−26s61195100 0.0 1019249
2 march, tue
tue223:00−26s71394100 0.0 1018265
02:00−26s71294100 0.0 1018255
05:00−27s7129498 0.0 1017236
08:00−26s8149394 0.0 1016271
11:00−24s8149197 0.0 1017351
14:00−22s81488100 0.0 1016405
17:00−22s81591100 0.0 1016381
20:00−24s8149197 0.0 1016314
3 march, wed
wed323:00−23s8158899 0.0 1016334
02:00−23s81488100 0.0 1016323
05:00−24s81490100 0.0 1016293
08:00−25s81492100 0.0 1016319
11:00−23s81491100 0.0 1016379
14:00−22s81489100 0.0 1016413
17:00−23sse81590100 0.0 1015362
20:00−22sse81592100 0.0 1015357